Location: Unspecified
(50.7693°N, 0.0000°E)
Time: 15:01:19
(UTC+00:00)

Tiangong 2 - Visible Passes

Search period start: 24 May 2019 00:00
Search period end: 03 June 2019 00:00
Orbit: 379 x 387 km, 42.8° (Epoch: 24 May)

Date Brightness Start Highest point End Pass type
(mag) Time Alt. Az. Time Alt. Az. Time Alt. Az.
24 May 2.9 21:47:10 10° SW 21:49:05 17° SSW 21:49:05 17° SSW visible
25 May 2.7 20:47:11 10° SW 20:49:29 19° S 20:51:43 10° SE visible
26 May 3.1 21:23:54 10° SW 21:25:42 14° SSW 21:26:28 13° S visible
28 May 3.5 21:01:03 10° SW 21:02:02 11° SSW 21:03:02 10° S visible
